TVS2XY LFPG-LKPR

Flight info

Callsign TVS2XY
Flight time 1h 13m
Altitude 37000
Route RANUX DCT VALEK DCT LIPNI DCT LIMGO DCT BOMBI DCT KOMIB L984 SULUS Z650 TONSU Z35 ODOMO DCT LOMKI
Aircraft A320/M-SDE3FGHIRWY/LB1

Departure

Time 2026-05-05 18:28
Airport Charles de Gaulle International Airport (LFPG)

Arrival

Time 2026-05-05 19:42
Airport Václav Havel Airport Prague (LKPR)
Time Latitude Longitude Altitude Speed Heading
2026-05-05 17:40 49.00551 2.56813 354 ft 0 kts 212°
2026-05-05 17:46 49.00552 2.56813 354 ft 0 kts 212°
2026-05-05 17:52 49.00552 2.56814 354 ft 0 kts 212°
2026-05-05 18:16 49.00554 2.56816 354 ft 1 kts 212°
2026-05-05 18:16 49.00568 2.56829 360 ft 3 kts 211°
2026-05-05 18:17 49.00586 2.56845 363 ft 3 kts 211°
2026-05-05 18:17 49.00603 2.56861 357 ft 3 kts 213°
2026-05-05 18:17 49.00619 2.56879 362 ft 3 kts 229°
2026-05-05 18:17 49.00630 2.56904 359 ft 3 kts 251°
2026-05-05 18:18 49.00633 2.56928 361 ft 1 kts 266°
2026-05-05 18:18 49.00634 2.56935 361 ft 0 kts 266°
2026-05-05 18:21 49.00633 2.56919 362 ft 6 kts 266°
2026-05-05 18:21 49.00627 2.56790 354 ft 18 kts 265°
2026-05-05 18:22 49.00614 2.56564 354 ft 23 kts 266°
2026-05-05 18:22 49.00604 2.56336 354 ft 20 kts 264°
2026-05-05 18:22 49.00589 2.56133 360 ft 18 kts 264°
2026-05-05 18:22 49.00575 2.55948 358 ft 17 kts 262°
2026-05-05 18:23 49.00563 2.55780 361 ft 14 kts 266°
2026-05-05 18:23 49.00558 2.55665 354 ft 8 kts 265°
2026-05-05 18:23 49.00554 2.55591 354 ft 8 kts 265°
2026-05-05 18:23 49.00520 2.55502 354 ft 12 kts 221°
2026-05-05 18:24 49.00438 2.55477 354 ft 12 kts 166°
2026-05-05 18:24 49.00377 2.55503 361 ft 9 kts 164°
2026-05-05 18:24 49.00294 2.55539 354 ft 16 kts 163°
2026-05-05 18:24 49.00177 2.55590 357 ft 19 kts 164°
2026-05-05 18:25 49.00036 2.55651 356 ft 21 kts 163°
2026-05-05 18:25 48.99972 2.55683 361 ft 11 kts 155°
2026-05-05 18:25 48.99921 2.55761 354 ft 7 kts 137°
2026-05-05 18:25 48.99840 2.55798 354 ft 13 kts 176°
2026-05-05 18:26 48.99767 2.55806 356 ft 8 kts 176°
2026-05-05 18:26 48.99724 2.55810 354 ft 5 kts 176°
2026-05-05 18:26 48.99689 2.55815 358 ft 7 kts 175°
2026-05-05 18:26 48.99620 2.55848 356 ft 9 kts 129°
2026-05-05 18:27 48.99605 2.55923 354 ft 3 kts 82°
2026-05-05 18:27 48.99606 2.55933 354 ft 0 kts 85°
2026-05-05 18:27 48.99606 2.55942 354 ft 9 kts 85°
2026-05-05 18:27 48.99632 2.56431 356 ft 81 kts 86°
2026-05-05 18:28 48.99775 2.59228 521 ft 163 kts 82°
2026-05-05 18:28 48.99870 2.60924 1310 ft 160 kts 82°
2026-05-05 18:28 48.99960 2.62611 2037 ft 160 kts 80°
2026-05-05 18:29 49.00057 2.64368 2455 ft 177 kts 81°
2026-05-05 18:29 49.00168 2.66353 2748 ft 200 kts 81°
2026-05-05 18:29 49.00289 2.68562 3121 ft 220 kts 83°
2026-05-05 18:29 49.00420 2.71002 3497 ft 243 kts 83°
2026-05-05 18:30 49.00557 2.73643 4188 ft 255 kts 83°
2026-05-05 18:30 49.00698 2.76411 4835 ft 262 kts 84°
2026-05-05 18:30 49.00838 2.79157 5705 ft 264 kts 84°
2026-05-05 18:30 49.00981 2.81995 6595 ft 267 kts 84°
2026-05-05 18:31 49.01123 2.84836 7440 ft 271 kts 85°
2026-05-05 18:31 49.01267 2.87705 8296 ft 273 kts 85°
2026-05-05 18:31 49.01414 2.90595 9199 ft 274 kts 85°
2026-05-05 18:31 49.01576 2.93496 10060 ft 275 kts 84°
2026-05-05 18:32 49.01847 2.96415 10703 ft 284 kts 81°
2026-05-05 18:32 49.02197 2.99444 11254 ft 296 kts 80°
2026-05-05 18:32 49.02583 3.02575 11857 ft 305 kts 81°
2026-05-05 18:32 49.02982 3.05795 12517 ft 313 kts 81°
2026-05-05 18:33 49.03384 3.09087 13180 ft 319 kts 81°
2026-05-05 18:33 49.03786 3.12451 13823 ft 326 kts 81°
2026-05-05 18:33 49.04186 3.15873 14428 ft 331 kts 81°
2026-05-05 18:33 49.04588 3.19355 15047 ft 336 kts 82°
2026-05-05 18:34 49.04992 3.22888 15665 ft 340 kts 82°
2026-05-05 18:34 49.05398 3.26455 16305 ft 344 kts 82°
2026-05-05 18:34 49.05809 3.30064 16966 ft 347 kts 82°
2026-05-05 18:34 49.06222 3.33732 17390 ft 358 kts 82°
2026-05-05 18:35 49.06646 3.37541 17729 ft 370 kts 82°
2026-05-05 18:35 49.07082 3.41448 18278 ft 375 kts 82°
2026-05-05 18:35 49.07523 3.45387 18679 ft 378 kts 82°
2026-05-05 18:35 49.07966 3.49333 18779 ft 377 kts 82°
2026-05-05 18:36 49.08409 3.53282 18995 ft 380 kts 82°
2026-05-05 18:36 49.08821 3.57252 19625 ft 380 kts 84°
2026-05-05 18:36 49.09144 3.61262 20236 ft 382 kts 85°
2026-05-05 18:36 49.09407 3.65298 20845 ft 383 kts 86°
2026-05-05 18:37 49.09643 3.69341 21449 ft 385 kts 86°
2026-05-05 18:37 49.09880 3.73408 22046 ft 386 kts 86°
2026-05-05 18:37 49.10129 3.77506 22639 ft 388 kts 85°
2026-05-05 18:37 49.10391 3.81623 23227 ft 390 kts 85°
2026-05-05 18:38 49.10668 3.85799 23728 ft 392 kts 85°
2026-05-05 18:38 49.10947 3.89947 24186 ft 394 kts 85°
2026-05-05 18:38 49.11226 3.94121 24631 ft 396 kts 85°
2026-05-05 18:38 49.11500 3.98308 25062 ft 398 kts 85°
2026-05-05 18:39 49.11771 4.02520 25480 ft 400 kts 85°
2026-05-05 18:39 49.12040 4.06751 25889 ft 402 kts 85°
2026-05-05 18:39 49.12309 4.11010 26297 ft 404 kts 86°
2026-05-05 18:39 49.12581 4.15290 26693 ft 406 kts 85°
2026-05-05 18:40 49.12856 4.19595 27085 ft 408 kts 86°
2026-05-05 18:40 49.13129 4.23920 27467 ft 410 kts 86°
2026-05-05 18:40 49.13398 4.28257 27846 ft 412 kts 86°
2026-05-05 18:40 49.13671 4.32624 28214 ft 414 kts 84°
2026-05-05 18:41 49.14226 4.36951 28564 ft 418 kts 76°
2026-05-05 18:41 49.15232 4.41137 28916 ft 422 kts 69°
2026-05-05 18:41 49.16367 4.45275 29259 ft 423 kts 69°
2026-05-05 18:41 49.17501 4.49439 29620 ft 425 kts 69°
2026-05-05 18:42 49.18634 4.53619 29945 ft 427 kts 70°
2026-05-05 18:42 49.19767 4.57809 30222 ft 428 kts 70°
2026-05-05 18:42 49.20907 4.62032 30491 ft 430 kts 70°
2026-05-05 18:42 49.22048 4.66268 30742 ft 432 kts 70°
2026-05-05 18:43 49.23193 4.70531 30993 ft 434 kts 70°
2026-05-05 18:43 49.24341 4.74809 31233 ft 435 kts 70°
2026-05-05 18:43 49.25117 4.77699 31442 ft 435 kts 70°
2026-05-05 18:43 49.26267 4.81985 31785 ft 434 kts 70°
2026-05-05 18:44 49.27406 4.86241 32112 ft 434 kts 70°
2026-05-05 18:44 49.28544 4.90517 32427 ft 434 kts 70°
2026-05-05 18:44 49.29680 4.94800 32753 ft 434 kts 70°
2026-05-05 18:44 49.30815 4.99078 33056 ft 434 kts 70°
2026-05-05 18:45 49.31951 5.03358 33367 ft 434 kts 70°
2026-05-05 18:45 49.33088 5.07638 33690 ft 433 kts 70°
2026-05-05 18:45 49.34225 5.11920 33971 ft 434 kts 71°
2026-05-05 18:45 49.35358 5.16201 34209 ft 434 kts 71°
2026-05-05 18:46 49.36486 5.20491 34429 ft 435 kts 71°
2026-05-05 18:46 49.37616 5.24803 34642 ft 436 kts 71°
2026-05-05 18:46 49.38567 5.28434 34811 ft 437 kts 71°
2026-05-05 18:46 49.39700 5.32771 35012 ft 438 kts 70°
2026-05-05 18:47 49.40836 5.37120 35204 ft 439 kts 70°
2026-05-05 18:47 49.41970 5.41468 35399 ft 440 kts 70°
2026-05-05 18:47 49.43110 5.45837 35587 ft 441 kts 70°
2026-05-05 18:47 49.44254 5.50218 35773 ft 442 kts 70°
2026-05-05 18:48 49.45397 5.54605 35953 ft 443 kts 70°
2026-05-05 18:48 49.46537 5.59000 36128 ft 443 kts 70°
2026-05-05 18:48 49.47679 5.63411 36315 ft 444 kts 70°
2026-05-05 18:48 49.48835 5.67891 36487 ft 445 kts 70°
2026-05-05 18:49 49.49973 5.72316 36656 ft 446 kts 71°
2026-05-05 18:49 49.51108 5.76753 36794 ft 447 kts 71°
2026-05-05 18:49 49.53321 5.85656 36826 ft 444 kts 72°
2026-05-05 18:50 49.55482 5.94570 36803 ft 444 kts 71°
2026-05-05 18:50 49.57665 6.03456 36813 ft 444 kts 71°
2026-05-05 18:51 49.59856 6.12356 36810 ft 444 kts 71°
2026-05-05 18:51 49.62039 6.21263 36809 ft 444 kts 71°
2026-05-05 18:52 49.64097 6.30230 36809 ft 442 kts 77°
2026-05-05 18:52 49.65729 6.39390 36807 ft 443 kts 77°
2026-05-05 18:53 49.67352 6.48557 36810 ft 443 kts 77°
2026-05-05 18:53 49.68979 6.57745 36810 ft 443 kts 77°
2026-05-05 18:54 49.70598 6.66929 36808 ft 443 kts 77°
2026-05-05 18:54 49.72202 6.76127 36808 ft 443 kts 77°
2026-05-05 18:55 49.73797 6.85316 36806 ft 444 kts 77°
2026-05-05 18:55 49.75386 6.94533 36809 ft 444 kts 77°
2026-05-05 18:56 49.76899 7.03842 36821 ft 442 kts 81°
2026-05-05 18:56 49.77991 7.13207 36830 ft 442 kts 83°
2026-05-05 18:57 49.78956 7.22606 36836 ft 442 kts 84°
2026-05-05 18:57 49.79920 7.31999 36834 ft 442 kts 83°
2026-05-05 18:58 49.80916 7.41395 36837 ft 442 kts 83°
2026-05-05 18:58 49.81910 7.50718 36829 ft 443 kts 83°
2026-05-05 18:59 49.82907 7.60121 36832 ft 443 kts 83°
2026-05-05 18:59 49.83894 7.69537 36833 ft 443 kts 83°
2026-05-05 19:00 49.84865 7.78933 36827 ft 443 kts 84°
2026-05-05 19:00 49.85830 7.88366 36831 ft 443 kts 84°
2026-05-05 19:01 49.86784 7.97786 36839 ft 442 kts 84°
2026-05-05 19:01 49.87693 8.06821 36848 ft 442 kts 84°
2026-05-05 19:02 49.88634 8.16326 36853 ft 442 kts 84°
2026-05-05 19:02 49.89552 8.25703 36860 ft 442 kts 84°
2026-05-05 19:03 49.90479 8.35134 36855 ft 442 kts 85°
2026-05-05 19:03 49.90865 8.44603 36834 ft 439 kts 91°
2026-05-05 19:04 49.91072 8.54081 36812 ft 439 kts 91°
2026-05-05 19:04 49.91255 8.63544 36819 ft 439 kts 91°
2026-05-05 19:05 49.91454 8.73029 36823 ft 440 kts 91°
2026-05-05 19:05 49.91667 8.82510 36825 ft 440 kts 91°
2026-05-05 19:06 49.91870 8.91986 36830 ft 440 kts 91°
2026-05-05 19:06 49.92058 9.01458 36838 ft 439 kts 91°
2026-05-05 19:07 49.92233 9.10943 36840 ft 440 kts 91°
2026-05-05 19:07 49.92404 9.20459 36842 ft 440 kts 91°
2026-05-05 19:08 49.92568 9.29915 36837 ft 440 kts 92°
2026-05-05 19:08 49.92726 9.39404 36838 ft 440 kts 92°
2026-05-05 19:09 49.92878 9.48890 36835 ft 440 kts 92°
2026-05-05 19:09 49.93015 9.58384 36832 ft 440 kts 92°
2026-05-05 19:10 49.93146 9.67865 36836 ft 440 kts 92°
2026-05-05 19:10 49.93273 9.77361 36831 ft 440 kts 92°
2026-05-05 19:11 49.93392 9.86861 36828 ft 440 kts 92°
2026-05-05 19:11 49.93506 9.96365 36833 ft 440 kts 92°
2026-05-05 19:12 49.93603 10.05858 36830 ft 440 kts 92°
2026-05-05 19:12 49.93695 10.15358 36828 ft 440 kts 92°
2026-05-05 19:13 49.93775 10.24858 36829 ft 440 kts 92°
2026-05-05 19:13 49.93856 10.34413 36828 ft 440 kts 92°
2026-05-05 19:14 49.93935 10.43928 36824 ft 440 kts 92°
2026-05-05 19:14 49.94004 10.53428 36831 ft 441 kts 92°
2026-05-05 19:15 49.94052 10.61341 36818 ft 441 kts 93°
2026-05-05 19:15 49.94100 10.70857 36818 ft 441 kts 93°
2026-05-05 19:16 49.94143 10.80376 36816 ft 441 kts 93°
2026-05-05 19:16 49.94179 10.89892 36829 ft 441 kts 93°
2026-05-05 19:17 49.94202 10.99478 36810 ft 441 kts 93°
2026-05-05 19:17 49.94209 11.04249 36596 ft 442 kts 93°
2026-05-05 19:17 49.94214 11.09012 36324 ft 440 kts 93°
2026-05-05 19:18 49.94218 11.13760 36078 ft 440 kts 93°
2026-05-05 19:18 49.94224 11.18503 35814 ft 439 kts 93°
2026-05-05 19:18 49.94230 11.23224 35558 ft 437 kts 93°
2026-05-05 19:18 49.94236 11.27932 35302 ft 434 kts 93°
2026-05-05 19:19 49.94236 11.32599 35046 ft 431 kts 93°
2026-05-05 19:19 49.94233 11.37240 34797 ft 429 kts 93°
2026-05-05 19:19 49.94228 11.41855 34551 ft 426 kts 94°
2026-05-05 19:19 49.94219 11.46424 34307 ft 423 kts 94°
2026-05-05 19:20 49.94211 11.50980 34060 ft 421 kts 94°
2026-05-05 19:20 49.94203 11.55513 33818 ft 418 kts 94°
2026-05-05 19:20 49.94192 11.60015 33544 ft 416 kts 94°
2026-05-05 19:20 49.94176 11.64489 33261 ft 414 kts 94°
2026-05-05 19:21 49.94158 11.68939 32984 ft 412 kts 94°
2026-05-05 19:21 49.94138 11.73376 32712 ft 410 kts 94°
2026-05-05 19:21 49.94118 11.77788 32449 ft 408 kts 94°
2026-05-05 19:21 49.94099 11.82186 32177 ft 406 kts 94°
2026-05-05 19:22 49.94077 11.86552 31912 ft 404 kts 94°
2026-05-05 19:22 49.94055 11.90895 31554 ft 399 kts 94°
2026-05-05 19:22 49.94028 11.95188 31082 ft 397 kts 94°
2026-05-05 19:22 49.93997 11.99458 30621 ft 394 kts 94°
2026-05-05 19:23 49.93966 12.03692 30159 ft 391 kts 94°
2026-05-05 19:23 49.93936 12.07895 29694 ft 389 kts 94°
2026-05-05 19:23 49.93909 12.12079 29229 ft 385 kts 94°
2026-05-05 19:23 49.93881 12.16260 28802 ft 381 kts 94°
2026-05-05 19:24 49.93852 12.20349 28380 ft 376 kts 94°
2026-05-05 19:24 49.93819 12.24391 27970 ft 373 kts 95°
2026-05-05 19:24 49.93783 12.28384 27557 ft 369 kts 94°
2026-05-05 19:24 49.93746 12.32347 27143 ft 365 kts 94°
2026-05-05 19:25 49.93702 12.36273 26732 ft 362 kts 95°
2026-05-05 19:25 49.93616 12.40162 26328 ft 359 kts 96°
2026-05-05 19:25 49.93506 12.44011 25905 ft 356 kts 96°
2026-05-05 19:25 49.93384 12.47831 25490 ft 353 kts 96°
2026-05-05 19:26 49.93259 12.51622 25072 ft 351 kts 96°
2026-05-05 19:26 49.93137 12.55418 24792 ft 356 kts 96°
2026-05-05 19:26 49.93051 12.58192 24673 ft 359 kts 96°
2026-05-05 19:26 49.92931 12.62115 23827 ft 371 kts 95°
2026-05-05 19:27 49.92815 12.66112 23380 ft 369 kts 95°
2026-05-05 19:27 49.92702 12.70070 22871 ft 367 kts 95°
2026-05-05 19:27 49.92587 12.74011 22417 ft 363 kts 95°
2026-05-05 19:27 49.92471 12.77911 21962 ft 361 kts 95°
2026-05-05 19:28 49.92350 12.81781 21520 ft 358 kts 96°
2026-05-05 19:28 49.92224 12.85636 21075 ft 356 kts 96°
2026-05-05 19:28 49.92095 12.89461 20640 ft 354 kts 96°
2026-05-05 19:28 49.91969 12.93268 20203 ft 353 kts 96°
2026-05-05 19:29 49.91846 12.97055 19773 ft 351 kts 96°
2026-05-05 19:29 49.91722 13.00834 19340 ft 350 kts 96°
2026-05-05 19:29 49.91597 13.04603 18900 ft 349 kts 96°
2026-05-05 19:29 49.91474 13.08341 18479 ft 348 kts 96°
2026-05-05 19:30 49.91350 13.12096 18050 ft 348 kts 96°
2026-05-05 19:30 49.91229 13.15839 17588 ft 347 kts 94°
2026-05-05 19:30 49.91541 13.19557 17134 ft 351 kts 73°
2026-05-05 19:30 49.92626 13.22942 16732 ft 352 kts 57°
2026-05-05 19:31 49.94142 13.25905 16480 ft 351 kts 51°
2026-05-05 19:31 49.95724 13.28795 16183 ft 350 kts 51°
2026-05-05 19:31 49.97332 13.31712 15669 ft 352 kts 51°
2026-05-05 19:31 49.98932 13.34605 15163 ft 353 kts 51°
2026-05-05 19:32 50.00536 13.37502 14678 ft 354 kts 51°
2026-05-05 19:32 50.02139 13.40420 14195 ft 355 kts 54°
2026-05-05 19:32 50.03305 13.43749 13717 ft 349 kts 75°
2026-05-05 19:32 50.03677 13.47433 13205 ft 343 kts 94°
2026-05-05 19:33 50.03394 13.51083 12679 ft 340 kts 100°
2026-05-05 19:33 50.03487 13.54765 12158 ft 345 kts 81°
2026-05-05 19:33 50.03984 13.58415 11648 ft 344 kts 81°
2026-05-05 19:33 50.04481 13.62053 11150 ft 343 kts 81°
2026-05-05 19:34 50.04964 13.65662 10661 ft 341 kts 81°
2026-05-05 19:34 50.05429 13.69205 10368 ft 325 kts 81°
2026-05-05 19:34 50.05862 13.72550 10122 ft 306 kts 82°
2026-05-05 19:35 50.06663 13.78909 9627 ft 290 kts 82°
2026-05-05 19:35 50.07037 13.81913 9385 ft 278 kts 82°
2026-05-05 19:35 50.07451 13.84832 9009 ft 277 kts 74°
2026-05-05 19:35 50.08423 13.87379 8492 ft 275 kts 48°
2026-05-05 19:36 50.09774 13.89465 7988 ft 271 kts 45°
2026-05-05 19:36 50.11130 13.91470 7474 ft 266 kts 45°
2026-05-05 19:36 50.12467 13.93431 7000 ft 262 kts 45°
2026-05-05 19:36 50.13782 13.95350 6519 ft 256 kts 45°
2026-05-05 19:37 50.15077 13.97231 6031 ft 252 kts 45°
2026-05-05 19:37 50.16351 13.99074 5529 ft 248 kts 45°
2026-05-05 19:37 50.17602 14.00884 5026 ft 243 kts 45°
2026-05-05 19:37 50.18836 14.02666 4536 ft 239 kts 45°
2026-05-05 19:38 50.19884 14.04579 4145 ft 225 kts 67°
2026-05-05 19:38 50.20027 14.06832 3954 ft 204 kts 109°
2026-05-05 19:38 50.19174 14.08409 3774 ft 188 kts 149°
2026-05-05 19:38 50.18106 14.09345 3546 ft 163 kts 135°
2026-05-05 19:39 50.17506 14.10701 3354 ft 146 kts 123°
2026-05-05 19:39 50.16887 14.11945 3164 ft 141 kts 124°
2026-05-05 19:39 50.16306 14.13123 2987 ft 137 kts 123°
2026-05-05 19:39 50.15728 14.14312 2803 ft 135 kts 123°
2026-05-05 19:40 50.15163 14.15481 2629 ft 135 kts 122°
2026-05-05 19:40 50.14594 14.16660 2449 ft 139 kts 122°
2026-05-05 19:40 50.14005 14.17881 2274 ft 143 kts 122°
2026-05-05 19:40 50.13397 14.19132 2130 ft 146 kts 122°
2026-05-05 19:41 50.12800 14.20393 1907 ft 144 kts 122°
2026-05-05 19:41 50.12192 14.21659 1688 ft 147 kts 123°
2026-05-05 19:41 50.11568 14.22944 1476 ft 149 kts 123°
2026-05-05 19:41 50.10953 14.24216 1263 ft 146 kts 124°
2026-05-05 19:42 50.10368 14.25434 1183 ft 128 kts 127°
2026-05-05 19:42 50.09988 14.26220 1200 ft 48 kts 126°
2026-05-05 19:42 50.09873 14.26527 1212 ft 26 kts 95°
2026-05-05 19:42 50.09886 14.26746 1212 ft 17 kts 81°
2026-05-05 19:43 50.09899 14.26888 1210 ft 12 kts 82°
2026-05-05 19:43 50.09909 14.27003 1208 ft 9 kts 82°
2026-05-05 19:43 50.09918 14.27102 1207 ft 9 kts 82°
2026-05-05 19:43 50.09952 14.27121 1206 ft 6 kts 309°
2026-05-05 19:44 50.09985 14.27046 1205 ft 12 kts 304°
2026-05-05 19:44 50.10050 14.26909 1202 ft 19 kts 306°
2026-05-05 19:44 50.10139 14.26723 1198 ft 23 kts 305°
2026-05-05 19:44 50.10232 14.26531 1195 ft 19 kts 306°
2026-05-05 19:45 50.10309 14.26371 1192 ft 19 kts 307°
2026-05-05 19:45 50.10368 14.26251 1189 ft 12 kts 307°
2026-05-05 19:45 50.10423 14.26136 1187 ft 10 kts 306°
2026-05-05 19:45 50.10453 14.26074 1186 ft 7 kts 307°
2026-05-05 19:46 50.10483 14.26010 1185 ft 8 kts 307°
2026-05-05 19:46 50.10524 14.26001 1183 ft 7 kts 60°
2026-05-05 19:46 50.10531 14.26089 1178 ft 11 kts 83°
2026-05-05 19:46 50.10541 14.26194 1177 ft 7 kts 88°
2026-05-05 19:47 50.10535 14.26236 1177 ft 5 kts 111°
2026-05-05 19:47 50.10506 14.26310 1176 ft 6 kts 124°
2026-05-05 19:47 50.10491 14.26345 1174 ft 5 kts 123°
2026-05-05 19:47 50.10463 14.26408 1177 ft 5 kts 123°
2026-05-05 19:48 50.10452 14.26436 1175 ft 4 kts 123°
2026-05-05 19:48 50.10459 14.26450 1176 ft 3 kts 24°
2026-05-05 19:48 50.10479 14.26471 1174 ft 3 kts 34°
2026-05-05 19:48 50.10485 14.26478 1175 ft 0 kts 33°
2026-05-05 19:51 50.10714 14.26328 1172 ft 0 kts 214°